Location: Anumalkud?ru
(16.4847°N, 80.6636°E)
Time: 11:28:31
(UTC+00:00)

Resurs 01 Rocket - Pass Details

Date: 11 April 2026
Orbit: 627 x 635 km, 97.7° (Epoch: 20 May)

Event Time Altitude Azimuth Distance (km) Brightness Sun altitude
Rises 14:00:16 0° 176° (S) 2,916 4.8 -16.9°
Reaches altitude 10° 14:02:29 10° 180° (S) 2,009 4.0 -17.4°
Maximum altitude 14:06:47 58° 259° (W) 737 2.2 -18.4°
Drops below altitude 10° 14:11:05 10° 339° (NNW) 2,007 4.7 -19.4°
Sets 14:13:19 0° 343° (NNW) 2,914 5.5 -19.9°
